Tracking 35334 objects as of 13-Sep-2026
HD Live streaming from Space Station
objects crossing your sky now

R5-S4


R5-S4 is no longer on orbit
R5-S4 is classified as:


NORAD ID: 60204
Int'l Code: 2024-126B
Launch date: July 4, 2024
Source: United States (US)
Launch site: AIR FORCE WESTERN TEST RANGE (AFWTR)
Decay date: 2025-07-08

Uplink (MHz):
Downlink (MHz): 1621.250
Beacon (MHz):
Mode: FM
Call sign:
Status: Unknown

Your satellite tracking list
Your tracking list is empty




NASA's NSSDC Master Catalog

Two Line Element Set (TLE):
1 60204U 24125B   25185.20120778  .13894512  24915-5  38622-3 0  9997
2 60204  97.2318  45.9344 0010810 255.1767 104.8338 16.44661849 56373
Source of the keplerian elements: AFSPC